McCook, NE

12:49 PM CDT on August 18, 2017 (GMT -0500)
McCook Municipal

Weather History for KMCK - November, 2012

Change the Weather History Date:

Friday, November 2, 2012

  Actual Average Record
Temperature  
Mean Temperature 46 °F 45 °F  
Max Temperature 62 °F 60 °F 79 °F (1964)
Min Temperature 30 °F 30 °F 2 °F (1951)
Degree Days  
Heating Degree Days 17    
Moisture  
Dew Point 36 °F    
Average Humidity 69    
Maximum Humidity 93    
Minimum Humidity 39    
Precipitation  
Precipitation 0.00 in 0.04 in 0.76 in (1998)
Month to date precipitation 0.00 0.08  
Year to date precipitation 8.09 21.02  
Sea Level Pressure  
Sea Level Pressure 29.96 in    
Wind  
Wind Speed 9 mph (NNE)    
Max Wind Speed 26 mph    
Max Gust Speed 32 mph    
Visibility 9 miles    
Events      
T = Trace of Precipitation, MM = Missing Value Source: NWS Daily Summary

Daily Weather History Graph

Daily Weather History Graph

Search for Another Location

Airport or City:

Trip Planner

Search our weather history database for the weather conditions in past years. The results will help you decide how hot, cold, wet, or windy it might be!

Date:

Astronomy

Nov. 02, 2012 Rise Set
Actual Time 8:13 AM CDT 6:37 PM CDT
Civil Twilight 7:45 AM CDT 7:06 PM CDT
Nautical Twilight 7:13 AM CDT 7:38 PM CDT
Astronomical Twilight 6:41 AM CDT 8:09 PM CDT
Moon 9:26 PM CDT (11/2) 11:35 AM CDT (11/2)
Length of Visible Light 11h 20m
Length of Day
10h 24m
Waning Gibbous, 87% of the Moon is Illuminated
Nov 2
Waning Gibbous
Nov 6
Last Quarter
Nov 13
New
Nov 20
First Quarter
Nov 28
Full

Hourly Weather History & Observations

Time (CDT) Temp. Windchill Dew Point Humidity Pressure Visibility Wind Dir Wind Speed Gust Speed Precip Events Conditions
12:53 AM 48.0 °F - 39.0 °F 71% 29.86 in 10.0 mi East 5.8 mph - N/A   Clear
1:53 AM 46.0 °F 42.5 °F 37.9 °F 73% 29.85 in 10.0 mi East 6.9 mph - N/A   Clear
2:53 AM 42.1 °F 38.4 °F 37.0 °F 82% 29.84 in 10.0 mi ENE 5.8 mph - N/A   Clear
3:53 AM 41.0 °F 37.1 °F 36.0 °F 82% 29.82 in 10.0 mi East 5.8 mph - N/A   Clear
4:53 AM 37.0 °F 32.4 °F 35.1 °F 93% 29.82 in 9.0 mi ENE 5.8 mph - N/A   Clear
5:53 AM 37.0 °F 33.3 °F 34.0 °F 89% 29.84 in 7.0 mi NNE 4.6 mph - N/A   Clear
6:53 AM 39.0 °F 34.0 °F 36.0 °F 89% 29.87 in 7.0 mi North 6.9 mph - N/A   Clear
7:53 AM 37.9 °F 32.7 °F 35.1 °F 89% 29.86 in 6.0 mi NE 6.9 mph - N/A   Clear
8:53 AM 39.0 °F 35.7 °F 37.0 °F 93% 29.91 in 4.0 mi North 4.6 mph - N/A   Clear
9:53 AM 45.0 °F 43.5 °F 39.0 °F 80% 29.91 in 5.0 mi North 3.5 mph - N/A   Haze
10:53 AM 53.1 °F - 39.9 °F 61% 29.91 in 7.0 mi NNW 9.2 mph - N/A   Clear
11:53 AM 60.1 °F - 35.1 °F 39% 29.92 in 10.0 mi North 21.9 mph - N/A   Clear
12:53 PM 57.0 °F - 37.9 °F 49% 29.96 in 10.0 mi North 18.4 mph - N/A   Clear
1:53 PM 57.9 °F - 37.0 °F 46% 29.95 in 10.0 mi North 18.4 mph 23.0 mph N/A   Clear
2:53 PM 59.0 °F - 35.1 °F 41% 29.96 in 10.0 mi North 26.5 mph 32.2 mph N/A   Clear
3:53 PM 60.1 °F - 35.1 °F 39% 29.98 in 10.0 mi North 23.0 mph 31.1 mph N/A   Clear
4:53 PM 57.0 °F - 36.0 °F 45% 30.01 in 10.0 mi North 19.6 mph - N/A   Unknown
5:53 PM 55.9 °F - 36.0 °F 47% 30.04 in 10.0 mi North 15.0 mph - N/A   Clear
6:53 PM 50.0 °F - 35.1 °F 57% 30.08 in 10.0 mi North 12.7 mph - N/A   Clear
7:53 PM 44.1 °F 40.8 °F 34.0 °F 68% 30.12 in 10.0 mi North 5.8 mph - N/A   Clear
8:53 PM 43.0 °F 41.3 °F 33.1 °F 68% 30.13 in 10.0 mi NE 3.5 mph - N/A   Clear
9:53 PM 37.9 °F - 32.0 °F 79% 30.14 in 10.0 mi Calm Calm - N/A   Clear
10:53 PM 36.0 °F 33.3 °F 30.9 °F 82% 30.15 in 10.0 mi NE 3.5 mph - N/A   Clear
11:53 PM 35.1 °F - 30.9 °F 85% 30.16 in 10.0 mi Calm Calm - N/A   Clear